Weather History for Jackson Hawkins Field, MS

Change the Weather History Date:

Sunday, November 17, 2013

  Actual Average (KJAN) Record (KJAN)
Temperature  
Mean Temperature 74 °F 55 °F  
Max Temperature 79 °F 67 °F 85 °F (1906)
Min Temperature 68 °F 44 °F 21 °F (1920)
Degree Days  
Heating Degree Days 0 10  
Month to date heating degree days 140  
Since 1 July heating degree days 247  
Cooling Degree Days 8 1  
Month to date cooling degree days 18  
Year to date cooling degree days 2249  
Growing Degree Days 24 (Base 50)    
Moisture  
Dew Point 69 °F    
Average Humidity 88    
Maximum Humidity 97    
Minimum Humidity 72    
Precipitation  
Precipitation 0.00 in 0.16 in 1.17 in (1974)
Month to date precipitation 2.48  
Year to date precipitation 46.71  
Sea Level Pressure  
Sea Level Pressure 29.90 in    
Wind  
Wind Speed 9 mph (South)    
Max Wind Speed 14 mph    
Max Gust Speed 22 mph    
Visibility 6 miles    
Events Fog , Rain    
T = Trace of Precipitation, MM = Missing Value Source: NWS Daily Summary

Daily Weather History Graph

Daily Weather History Graph

Search for Another Location

Airport:

Trip Planner

Search our weather history database for the weather conditions in past years. The results will help you decide how hot, cold, wet, or windy it might be!

Date:

Astronomy

Nov. 17, 2013 Rise Set
Actual Time 6:32 AM CST 4:59 PM CST
Civil Twilight 6:06 AM CST 5:25 PM CST
Nautical Twilight 5:36 AM CST 5:55 PM CST
Astronomical Twilight 5:07 AM CST 6:24 PM CST
Moon 5:16 PM CST (11/17) 6:27 AM CST (11/17)
Length of Visible Light 11h 19m
Length of Day
10h 27m
Full, 100% of the Moon is Illuminated
Nov 17
Full
Nov 25
Last Quarter
Dec 2
New
Dec 9
First Quarter
Dec 17
Full

Hourly Weather History & Observations

Time (CST) Temp. Dew Point Humidity Pressure Visibility Wind Dir Wind Speed Gust Speed Precip Events Conditions
12:53 AM 69.1 °F 66.0 °F 90% 29.93 in 4.0 mi SSE 10.4 mph - N/A   Overcast
1:07 AM 69.8 °F 66.2 °F 88% 29.95 in 10.0 mi SSE 12.7 mph - N/A   Overcast
1:53 AM 69.1 °F 66.0 °F 90% 29.91 in 2.5 mi SSE 10.4 mph - 0.00 in Rain Light Rain
2:06 AM 69.8 °F 66.2 °F 88% 29.93 in 4.0 mi SSE 10.4 mph - 0.00 in   Overcast
2:53 AM 68.0 °F 66.0 °F 93% 29.89 in 2.5 mi SE 11.5 mph - 0.00 in   Overcast
3:14 AM 68.0 °F 66.2 °F 94% 29.91 in 3.0 mi SE 10.4 mph - N/A   Overcast
3:53 AM 68.0 °F 66.0 °F 93% 29.88 in 4.0 mi SSE 10.4 mph - N/A   Overcast
4:53 AM 68.0 °F 66.0 °F 93% 29.88 in 3.0 mi SSE 9.2 mph - N/A   Overcast
5:53 AM 69.1 °F 66.9 °F 93% 29.89 in 4.0 mi South 10.4 mph - 0.00 in   Overcast
6:53 AM 69.1 °F 66.9 °F 93% 29.89 in 5.0 mi SSE 9.2 mph - 0.00 in   Overcast
7:53 AM 70.0 °F 66.9 °F 90% 29.89 in 10.0 mi SSE 12.7 mph - N/A   Overcast
8:53 AM 71.1 °F 68.0 °F 90% 29.90 in 10.0 mi South 11.5 mph - 0.00 in   Overcast
9:53 AM 72.0 °F 68.0 °F 87% 29.91 in 10.0 mi South 12.7 mph - N/A   Overcast
10:53 AM 73.0 °F 69.1 °F 87% 29.89 in 10.0 mi South 9.2 mph - N/A   Overcast
11:12 AM 73.4 °F 69.8 °F 88% 29.91 in 10.0 mi South 10.4 mph - N/A   Overcast
11:53 AM 73.9 °F 69.1 °F 85% 29.87 in 10.0 mi SSW 8.1 mph - N/A   Overcast
12:15 PM 75.2 °F 69.8 °F 83% 29.86 in 10.0 mi South 13.8 mph 19.6 mph N/A   Overcast
12:53 PM 79.0 °F 70.0 °F 74% 29.83 in 10.0 mi SSW 11.5 mph 21.9 mph N/A   Mostly Cloudy
1:53 PM 79.0 °F 69.1 °F 72% 29.83 in 10.0 mi SSW 13.8 mph 18.4 mph N/A   Overcast
2:53 PM 79.0 °F 70.0 °F 74% 29.83 in 10.0 mi SW 10.4 mph - N/A   Overcast
3:06 PM 78.8 °F 69.8 °F 74% 29.85 in 10.0 mi South 9.2 mph - N/A   Overcast
3:53 PM 79.0 °F 70.0 °F 74% 29.83 in 10.0 mi South 8.1 mph - N/A   Mostly Cloudy
4:53 PM 78.1 °F 70.0 °F 76% 29.86 in 10.0 mi South 6.9 mph - N/A   Overcast
5:53 PM 75.0 °F 70.0 °F 84% 29.88 in 10.0 mi South 4.6 mph - N/A   Mostly Cloudy
6:53 PM 75.0 °F 70.0 °F 84% 29.89 in 10.0 mi South 4.6 mph - N/A   Partly Cloudy
7:53 PM 73.0 °F 70.0 °F 90% 29.90 in 8.0 mi South 4.6 mph - N/A   Clear
8:53 PM 73.0 °F 70.0 °F 90% 29.91 in 6.0 mi South 3.5 mph - N/A   Clear
9:38 PM 71.6 °F 69.8 °F 94% 29.95 in 3.0 mi Calm Calm - N/A   Mostly Cloudy
9:53 PM 72.0 °F 71.1 °F 97% 29.93 in 3.0 mi South 3.5 mph - N/A   Overcast
10:13 PM 71.6 °F 69.8 °F 94% 29.95 in 2.5 mi South 3.5 mph - N/A   Mostly Cloudy
10:22 PM 71.6 °F 69.8 °F 94% 29.95 in 1.5 mi South 3.5 mph - N/A   Scattered Clouds
10:35 PM 71.6 °F 69.8 °F 94% 29.95 in 0.5 mi South 3.5 mph - N/A Fog Fog
10:49 PM 71.6 °F 69.8 °F 94% 29.95 in 1.5 mi South 5.8 mph - N/A   Scattered Clouds
10:53 PM 71.1 °F 69.1 °F 93% 29.93 in 2.5 mi South 4.6 mph - N/A   Scattered Clouds
11:03 PM 71.6 °F 69.8 °F 94% 29.95 in 4.0 mi South 3.5 mph - N/A   Mostly Cloudy
11:21 PM 71.6 °F 69.8 °F 94% 29.96 in 4.0 mi South 3.5 mph - N/A   Overcast
11:53 PM 72.0 °F 71.1 °F 97% 29.94 in 5.0 mi Calm Calm - N/A   Overcast